This demonstration page uses our WeatherBlox Daily Observations layout. Learn more.

Left ArrowRight Arrow

31.84235, -102.49876

Hourly Observations for March 16, 2017

Temp ( °F °C ) Dew Point ( °F °C ) Humidity (%) Winds ( mph kmh ) Pressure ( in mb ) Visibility ( mi km ) Precip ( " mm )
12:53 am 00:53 Clear 57 13.9 51 10.6 81 81 S 8 13 30.09 1019 10 16 0.00 0.00
1:53 am 01:53 Clear 56 13.3 51 10.6 84 84 S 7 11 30.06 1018 9 14 0.00 0.00
2:53 am 02:53 Clear 54 12.2 50 10 87 87 S 8 13 30.05 1018 8 13 0.00 0.00
3:53 am 03:53 Clear 54 12.2 50 10 87 87 S 8 13 30.03 1017 7 11 0.00 0.00
4:53 am 04:53 Clear 55 12.8 52 11.1 90 90 S 10 17 30.01 1016 8 13 0.00 0.00
5:37 am 05:37 Partly Cloudy 55 12.8 52 11.1 90 90 S 12 19 30.06 1018 7 11 0.00 0.00
5:46 am 05:46 Mostly Cloudy with Mist and Fog 56 13.3 52 11.1 87 87 S 13 20 30.06 1018 6 10 0.00 0.00
5:53 am 05:53 Mostly Cloudy with Mist and Fog 56 13.3 52 11.1 87 87 S 14 22 30.01 1016 6 10 0.00 0.00
6:06 am 06:06 Cloudy with Mist and Fog 56 13.3 53 11.7 90 90 S 16 26 30.06 1018 5 8 0.00 0.00
6:53 am 06:53 Cloudy with Mist and Fog 57 13.9 53 11.7 87 87 S 17 28 30.02 1017 6 10 0.00 0.00
7:18 am 07:18 Cloudy 57 13.9 53 11.7 87 87 S 16 26 30.06 1018 7 11 0.00 0.00
7:53 am 07:53 Cloudy with Mist and Fog 57 13.9 53 11.7 87 87 S 12 19 30.03 1017 6 10 0.00 0.00
8:53 am 08:53 Cloudy with Mist and Fog 57 13.9 53 11.7 87 87 SSW 12 19 30.04 1017 5 8 0.00 0.00
9:28 am 09:28 Partly Cloudy with Mist and Fog 57 13.9 53 11.7 87 87 SSW 9 15 30.09 1019 5 8 0.00 0.00
9:53 am 09:53 Hazy 58 14.4 53 11.7 84 84 SW 10 17 30.07 1018 5 8 0.00 0.00
10:00 am 10:00 Mostly Cloudy with Haze 59 15 54 12.2 83 83 S 9 15 30.06 1018 6 10 0.00 0.00
10:16 am 10:16 Partly Cloudy 61 16.1 54 12.2 78 78 SSW 12 19 30.06 1018 8 13 0.00 0.00
10:53 am 10:53 Sunny 64 17.8 54 12.2 70 70 SSW 16 26 30.05 1018 10 16 0.00 0.00
11:03 am 11:03 Mostly Sunny 66 18.9 54 12.2 65 65 S 14 22 30.03 1017 10 16 0.00 0.00
11:53 am 11:53 Sunny 71 21.7 53 11.7 53 53 SSW 15 24 30.03 1017 10 16 0.00 0.00
12:25 pm 12:25 Mostly Sunny 73 22.8 52 11.1 48 48 S 13 20 29.94 1014 10 16 0.00 0.00
12:53 pm 12:53 Sunny 75 23.9 51 10.6 43 43 SSW 14 22 30.02 1017 10 16 0.00 0.00
1:34 pm 13:34 Mostly Sunny 79 26.1 47 8.3 32 32 SW 12 19 29.91 1013 10 16 0.00 0.00
1:53 pm 13:53 Sunny 81 27.2 47 8.3 30 30 SW 9 15 29.98 1015 10 16 0.00 0.00
2:53 pm 14:53 Sunny 84 28.9 44 6.7 25 25 WSW 13 20 29.94 1014 10 16 0.00 0.00
3:53 pm 15:53 Sunny 86 30 40 4.4 20 20 SW 13 20 29.91 1013 10 16 0.00 0.00
4:31 pm 16:31 Mostly Sunny 88 31.1 30 -1.1 12 12 W 16 26 29.77 1008 10 16 0.00 0.00
4:53 pm 16:53 Mostly Sunny 87 30.6 28 -2.2 12 12 W 12 19 29.88 1012 10 16 0.00 0.00
5:53 pm 17:53 Partly Cloudy 87 30.6 24 -4.4 10 10 WSW 13 20 29.86 1011 10 16 0.00 0.00
6:53 pm 18:53 Sunny 85 29.4 27 -2.8 12 12 W 9 15 29.86 1011 10 16 0.00 0.00
7:40 pm 19:40 Mostly Sunny 82 27.8 29 -1.7 14 14 WSW 8 13 29.80 1009 10 16 0.00 0.00
7:53 pm 19:53 Mostly Sunny 81 27.2 37 2.8 21 21 SW 10 17 29.88 1012 10 16 0.00 0.00
8:53 pm 20:53 Clear 76 24.4 48 8.9 37 37 S 10 17 29.91 1013 10 16 0.00 0.00
9:53 pm 21:53 Clear 73 22.8 51 10.6 46 46 S 12 19 29.93 1014 10 16 0.00 0.00
10:53 pm 22:53 Clear 71 21.7 54 12.2 55 55 S 17 28 29.94 1014 10 16 0.00 0.00
11:53 pm 23:53 Clear with Light Rain 68 20 55 12.8 63 63 S 15 24 29.94 1014 10 16 0.00 0.03

Powered by AerisWeather